Location: *
(32.8667°N, 13.1833°E)
Time: 09:03:17
(UTC+00:00)

NOSS 0 Rocket - Pass Details

Date: 18 July 2019
Orbit: 937 x 952 km, 70.0° (Epoch: 20 August)

Event Time Altitude Azimuth Distance (km) Brightness Sun altitude
Exits shadow 22:06:55 57° 348° (NNW) 1,101 4.4 -33.9°
Drops below altitude 10° 22:11:55 10° 17° (NNE) 2,657 6.9 -34.2°
Sets 22:14:27 0° 19° (NNE) 3,603 7.7 -34.4°
